Tracking 30074 objects as of 14-Jan-2025
HD Live streaming from Space Station
objects crossing your sky now

SHIYAN 6 02 (SY-6 02)

Track SHIYAN 6 02 (SY-6 02) now!
10-day predictions


NORAD ID: 45859
Int'l Code: 2020-043A
Perigee: 606.7 km
Apogee: 792.4 km
Inclination: 98.2 °
Period: 98.6 minutes
Semi major axis: 7070 km
RCS: Unknown
Launch date: July 4, 2020
Source: People's Republic of China (PRC)
Launch site: Jiuquan Satellite Launch Center, China (JSC)
Your satellite tracking list
Your tracking list is empty




NASA's NSSDC Master Catalog

Two Line Element Set (TLE):
1 45859U 20043A   25013.76946741  .00000760  00000-0  14943-3 0  9992
2 45859  98.1954  25.5509 0131288  49.3877 311.8656 14.60244423241036
Source of the keplerian elements: AFSPC